Simultaneous Nadir Overpasses (SNOs) Predictions

Prediction of SNOs between GOES-14 and NPP Satellite Orbit:

Table of predicted SNOs for the next 14.0 days since TLE Epoch: 12/2/2023
Index Date Time (GOES-14) GOES-14 Lat,Lon NPP Lat,Lon Distance(km) Time Diff (sec)
1 12/02/2023 08:49:46 -0.03,-108.63 0.54,-111.31 305.16 80
2 12/03/2023 08:33:40 -0.02,-108.63 -0.46,-106.78 211.67 80
3 12/04/2023 20:52:55 0.05,-108.60 -0.73,-112.08 396.46 80
4 12/05/2023 20:36:50 0.04,-108.60 0.28,-107.54 120.54 80
5 12/07/2023 08:55:56 -0.06,-108.63 0.90,-112.81 476.45 80
6 12/08/2023 08:39:51 -0.04,-108.63 -0.12,-108.27 40.58 80
7 12/10/2023 20:40:21 0.05,-108.59 -0.03,-109.04 50.61 80
8 12/11/2023 20:24:14 0.03,-108.59 0.93,-104.50 466.15 80
9 12/13/2023 08:43:20 -0.05,-108.61 0.23,-109.77 131.57 80
10 12/14/2023 08:27:15 -0.04,-108.61 -0.80,-105.23 384.81 80
11 12/15/2023 20:46:29 0.05,-108.56 -0.40,-110.53 224.09 80
